sat.trackr.live / text

‹ back to catalog

STARLINK-35794

NORAD 67085 · 2025-298L

PAYLOAD ACTIVE UNKNOWN

§ Identity

Operator
Country
US
Launch date
2025-12-14
Launch site
AFWTR
Launch vehicle
Mass (kg)
RCS (m²)

Purposes: comms

External: N2YO · Heavens-Above · Gunter

§ Orbital elements

Epoch: 2026-05-25T02:25:09.742944Z

Period
96.11 min
Inclination
70.0008°
Eccentricity
0.0003662
Mean motion
14.98335470 rev/d
Perigee alt
569.5 km
Apogee alt
574.6 km
Semi-major
6,950.2 km
B*
2.0071e-4
RAAN
181.7760°
Arg perigee
268.0462°
Mean anomaly
92.0278°
Rev number
2,466

§ Raw data

STARLINK-357941 67085U 25298L   26145.10080721  .00002303  00000+0  20071-3 0  99992 67085  70.0008 181.7760 0003662 268.0462  92.0278 14.98335470 24668

JSON: /api/v1/satellites/67085 · /tle

For live sub-satellite position, see the globe view (requires WebGL).

§ Visibility from observer

Set your observer location to see the next 7 days of passes ≥ 10°. The values pass through the URL so the page stays shareable.

No JS? Fill the form by hand. The geolocation button needs JavaScript.